Weather History for KCOF - April, 2013

Change the Weather History Date:

Monday, April 22, 2013

  Actual Average Record
Temperature  
Mean Temperature 74 °F -  
Max Temperature 79 °F 78 °F 87 °F (1997)
Min Temperature 69 °F 65 °F 62 °F (2009)
Cooling Degree Days 8    
Growing Degree Days 24 (Base 50)    
Moisture  
Dew Point 68 °F    
Average Humidity 86    
Maximum Humidity 100    
Minimum Humidity 64    
Precipitation  
Precipitation 0.01 in - - ()
Sea Level Pressure  
Sea Level Pressure 30.04 in    
Wind  
Wind Speed 10 mph (NNW)    
Max Wind Speed 22 mph    
Max Gust Speed 20 mph    
Visibility 10 miles    
Events Rain    
Averages and records for this station are not official NWS values.
T = Trace of Precipitation, MM = Missing Value Source: NWS Daily Summary

Daily Weather History Graph

Daily Weather History Graph

Search for Another Location

Airport or City:

Trip Planner

Search our weather history database for the weather conditions in past years. The results will help you decide how hot, cold, wet, or windy it might be!

Date:

Astronomy

Apr. 22, 2013 Rise Set
Actual Time 6:50 AM EDT 7:52 PM EDT
Civil Twilight 6:25 AM EDT 8:16 PM EDT
Nautical Twilight 5:56 AM EDT 8:45 PM EDT
Astronomical Twilight 5:27 AM EDT 9:15 PM EDT
Moon 4:53 PM EDT (4/22) 4:26 AM EDT (4/22)
Length of Visible Light 13h 50m
Length of Day
13h 02m
Waxing Gibbous, 87% of the Moon is Illuminated
Apr 22
Waxing Gibbous
Apr 25
Full
May 2
Last Quarter
May 9
New
May 18
First Quarter

Hourly Weather History & Observations

Time (EDT) Temp. Dew Point Humidity Pressure Visibility Wind Dir Wind Speed Gust Speed Precip Events Conditions
12:08 AM 73.4 °F 71.6 °F 94% 30.08 in 10.0 mi WNW 10.4 mph - N/A   Mostly Cloudy
12:38 AM 73.4 °F 69.8 °F 88% 30.07 in 10.0 mi North 8.1 mph - N/A   Overcast
12:45 AM 73.4 °F 69.8 °F 88% 30.07 in 10.0 mi North 9.2 mph - N/A   Light Drizzle
12:50 AM 73.4 °F 69.8 °F 88% 30.07 in 10.0 mi North 8.1 mph - N/A   Light Drizzle
12:58 AM 72.1 °F 69.3 °F 91% 30.09 in 10.0 mi NNE 12.7 mph 18.4 mph 0.00 in Rain Light Rain
1:06 AM 71.6 °F 69.8 °F 94% 30.06 in 10.0 mi NE 12.7 mph - N/A   Mostly Cloudy
1:21 AM 71.6 °F 68.0 °F 88% 30.05 in 10.0 mi NE 6.9 mph - N/A   Mostly Cloudy
1:41 AM 71.6 °F 69.8 °F 94% 30.05 in 10.0 mi ENE 10.4 mph - N/A   Mostly Cloudy
1:46 AM 71.6 °F 69.8 °F 94% 30.05 in 10.0 mi ENE 11.5 mph - N/A   Scattered Clouds
1:58 AM 71.8 °F 69.3 °F 92% 30.06 in 10.0 mi East 6.9 mph - 0.00 in   Partly Cloudy
2:34 AM 73.4 °F 69.8 °F 88% 30.04 in 10.0 mi ESE 2.3 mph - N/A   Light Drizzle
2:58 AM 72.7 °F 70.0 °F 91% 30.04 in 10.0 mi ESE 1.2 mph - 0.00 in   Light Drizzle
3:20 AM 73.4 °F 69.8 °F 88% 30.02 in 10.0 mi SSE 2.3 mph - N/A   Scattered Clouds
3:58 AM 72.3 °F 70.5 °F 94% 30.03 in 10.0 mi SSW 5.8 mph - 0.00 in   Scattered Clouds
4:08 AM 73.4 °F 69.8 °F 88% 30.01 in 10.0 mi SW 9.2 mph - N/A   Mostly Cloudy
4:09 AM 73.4 °F 69.8 °F 88% 30.01 in 10.0 mi SW 10.4 mph - N/A   Light Drizzle
4:29 AM 71.6 °F 69.8 °F 94% 30.01 in 10.0 mi WSW 4.6 mph - N/A   Light Drizzle
4:34 AM 71.6 °F 69.8 °F 94% 30.01 in 10.0 mi West 5.8 mph - N/A   Light Drizzle
4:44 AM 71.6 °F 69.8 °F 94% 30.01 in 10.0 mi West 5.8 mph - N/A   Overcast
4:56 AM 71.6 °F 69.8 °F 94% 30.00 in 10.0 mi WSW 9.2 mph - N/A   Light Drizzle
4:59 AM 71.4 °F 70.0 °F 95% 30.01 in 10.0 mi SW 9.2 mph - 0.00 in   Light Drizzle
5:09 AM 71.6 °F 69.8 °F 94% 30.01 in 10.0 mi West 8.1 mph - N/A   Overcast
5:13 AM 71.6 °F 69.8 °F 94% 30.01 in 10.0 mi West 8.1 mph - N/A   Light Drizzle
5:27 AM 71.6 °F 69.8 °F 94% 30.00 in 10.0 mi West 6.9 mph - N/A   Scattered Clouds
5:58 AM 71.2 °F 68.7 °F 92% 30.01 in 10.0 mi West 9.2 mph - 0.00 in   Mostly Cloudy
6:58 AM 71.4 °F 68.7 °F 91% 30.03 in 10.0 mi WSW 5.8 mph - N/A   Scattered Clouds
7:40 AM 69.8 °F 68.0 °F 94% 30.02 in 10.0 mi West 6.9 mph - N/A   Mostly Cloudy
7:51 AM 69.8 °F 69.8 °F 100% 30.02 in 10.0 mi WNW 4.6 mph - N/A   Mostly Cloudy
7:54 AM 69.8 °F 69.8 °F 100% 30.02 in 10.0 mi WNW 4.6 mph - N/A   Overcast
7:58 AM 70.5 °F 68.9 °F 95% 30.04 in 10.0 mi WNW 4.6 mph - N/A   Overcast
8:58 AM 70.9 °F 68.5 °F 92% 30.06 in 10.0 mi NW 10.4 mph - N/A   Overcast
9:03 AM 71.6 °F 68.0 °F 88% 30.04 in 10.0 mi NW 8.1 mph - N/A   Overcast
9:58 AM 70.3 °F 68.0 °F 92% 30.09 in 10.0 mi NNW 11.5 mph - N/A   Overcast
10:18 AM 69.8 °F 68.0 °F 94% 30.08 in 10.0 mi NNW 9.2 mph - N/A   Overcast
10:33 AM 69.8 °F 68.0 °F 94% 30.08 in 10.0 mi NNW 11.5 mph - N/A   Overcast
10:58 AM 71.4 °F 67.1 °F 86% 30.09 in 10.0 mi North 9.2 mph - 0.01 in   Overcast
11:03 AM 71.6 °F 66.2 °F 83% 30.08 in 10.0 mi NNW 8.1 mph - N/A   Overcast
11:08 AM 71.6 °F 66.2 °F 83% 30.08 in 10.0 mi NNW 9.2 mph - N/A   Overcast
11:58 AM 75.7 °F 68.2 °F 77% 30.09 in 10.0 mi NNW 10.4 mph - N/A   Mostly Cloudy
12:03 PM 75.2 °F 68.0 °F 78% 30.07 in 10.0 mi NNW 12.7 mph - N/A   Mostly Cloudy
12:13 PM 77.0 °F 68.0 °F 74% 30.07 in 10.0 mi NNW 12.7 mph - N/A   Mostly Cloudy
12:38 PM 77.0 °F 68.0 °F 74% 30.06 in 10.0 mi NNW 10.4 mph - N/A   Mostly Cloudy
12:58 PM 76.8 °F 67.6 °F 73% 30.06 in 10.0 mi North 10.4 mph - N/A   Mostly Cloudy
1:58 PM 78.8 °F 65.8 °F 64% 30.06 in 10.0 mi North 9.2 mph - N/A   Partly Cloudy
2:18 PM 78.8 °F 68.0 °F 69% 30.04 in 10.0 mi NNE 11.5 mph - N/A   Mostly Cloudy
2:23 PM 77.0 °F 68.0 °F 74% 30.04 in 10.0 mi NNE 13.8 mph - N/A   Mostly Cloudy
2:58 PM 78.6 °F 67.5 °F 68% 30.04 in 10.0 mi NNE 19.6 mph - N/A   Mostly Cloudy
3:58 PM 77.9 °F 67.1 °F 69% 30.01 in 10.0 mi NNE 18.4 mph - N/A   Scattered Clouds
4:38 PM 73.4 °F 66.2 °F 78% 30.00 in 10.0 mi NNE 21.9 mph - N/A   Mostly Cloudy
4:43 PM 73.4 °F 66.2 °F 78% 30.00 in 10.0 mi NNE 18.4 mph - N/A   Mostly Cloudy
4:53 PM 73.4 °F 66.2 °F 78% 30.00 in 10.0 mi NNE 19.6 mph - N/A   Overcast
4:58 PM 73.8 °F 66.0 °F 77% 30.01 in 10.0 mi NNE 21.9 mph - N/A   Overcast
4:59 PM 73.4 °F 66.2 °F 78% 30.00 in 10.0 mi North 18.4 mph - N/A   Light Drizzle
5:09 PM 73.4 °F 66.2 °F 78% 30.00 in 10.0 mi NNE 20.7 mph - N/A   Overcast
5:58 PM 73.9 °F 66.4 °F 77% 30.01 in 10.0 mi North 17.3 mph - 0.00 in   Overcast
6:58 PM 73.6 °F 63.3 °F 70% 30.03 in 10.0 mi North 15.0 mph - N/A   Mostly Cloudy
7:58 PM 72.1 °F 64.8 °F 78% 30.04 in 10.0 mi North 11.5 mph - N/A   Scattered Clouds
8:58 PM 70.7 °F 66.4 °F 86% 30.06 in 10.0 mi NNW 12.7 mph - N/A   Scattered Clouds
9:28 PM 69.8 °F 66.2 °F 88% 30.05 in 10.0 mi NNW 16.1 mph - N/A   Mostly Cloudy
9:33 PM 69.8 °F 66.2 °F 88% 30.05 in 10.0 mi North 15.0 mph - N/A   Scattered Clouds
9:48 PM 69.8 °F 66.2 °F 88% 30.06 in 10.0 mi North 15.0 mph 19.6 mph N/A   Mostly Cloudy
9:58 PM 70.2 °F 66.6 °F 88% 30.08 in 10.0 mi North 12.7 mph - N/A   Mostly Cloudy
10:43 PM 69.8 °F 68.0 °F 94% 30.06 in 10.0 mi North 12.7 mph - N/A   Scattered Clouds
10:58 PM 70.7 °F 67.5 °F 89% 30.08 in 10.0 mi NNW 10.4 mph - N/A   Partly Cloudy
11:58 PM 70.7 °F 67.3 °F 89% 30.08 in 10.0 mi NNW 9.2 mph - N/A   Clear